Location: Occidental Observatory
(38.4214°N, 122.9202°W)
Time: 09:28:04
(UTC-07:00)

Daily predictions for brighter satellites

Satellite Brightness Start Highest point End
(mag) Time Altitude Azimuth Time Altitude Azimuth Time Altitude Azimuth
H-2A R/B 3.5 20:50:41 10° ESE 20:53:56 21° ENE 20:57:08 10° NNE
Envisat 4.1 20:50:23 10° SE 20:54:38 27° ENE 20:58:52 10° N
Cosmos 1606 4.0 20:52:59 10° NNE 20:56:17 25° ENE 20:59:32 10° SE
Meteor 2-3 Rocket 4.4 20:50:54 10° SSW 20:56:26 61° W 21:01:59 10° N
Cosmos 2184 Rocket 4.0 20:53:42 10° S 20:59:50 81° E 21:06:03 10° N
Cosmos 1624 Rocket 4.5 20:54:45 10° SSW 20:59:59 69° WNW 21:05:18 10° NNE
Cosmos 1892 3.0 20:56:42 10° SSW 21:00:30 71° W 21:04:22 10° N
H-2A R/B 3.9 21:00:07 10° SW 21:03:47 35° SSE 21:18:33 10° ESE
ALOS 2.9 21:01:43 10° S 21:06:19 60° W 21:10:58 10° NNW
ERS-1 Rocket 3.2 21:04:00 10° SSE 21:08:54 55° ENE 21:13:50 10° N
SJ-11-01 4.4 21:06:39 10° SSE 21:11:18 59° ENE 21:15:59 10° N
NOSS 5 (C) 4.2 21:08:33 10° SSW 21:12:07 74° ESE 21:15:14 10° NE
Cosmos 407 Rocket 3.6 21:07:56 10° NNW 21:13:13 72° ENE 21:18:32 10° SSE
H-2A R/B 3.6 21:10:13 10° S 21:13:48 49° W 21:17:26 10° NNW
USA 186 2.9 21:11:09 10° S 21:14:09 45° W 21:17:20 10° NNW
Meteor 1-27 Rocket 3.9 21:09:22 10° N 21:14:46 50° ENE 21:20:06 10° SSE
Cosmos 1782 2.8 21:12:41 10° N 21:16:45 81° E 21:20:47 10° S
Cosmos 1674 Rocket 3.6 21:17:14 10° N 21:21:42 88° W 21:26:07 10° S
Cosmos 1452 Rocket 3.5 21:18:57 10° S 21:24:11 75° ESE 21:29:29 10° NNE
H-2A R/B 4.3 21:25:08 10° ENE 21:25:38 10° ENE 21:26:09 10° NE
Okean 2 Rocket 3.9 21:22:30 12° SSE 21:26:02 31° E 21:29:55 10° NNE
ISS -2.7 21:25:14 10° WSW 21:28:26 59° NW 21:31:40 10° NE
Cosmos 1190 Rocket 4.4 21:23:50 10° NNW 21:28:59 65° WSW 21:34:07 10° S
Cosmos 1184 Rocket 3.4 21:26:18 12° SSE 21:29:02 38° E 21:32:09 10° NNE
Cosmos 1242 Rocket 4.0 21:27:49 10° NNE 21:30:49 23° ENE 21:32:16 18° ESE
YAOGAN 6 4.0 21:30:30 17° ESE 21:31:53 21° ENE 21:34:37 10° NNE
Cosmos 1939 Rocket 2.8 21:28:44 13° SSE 21:32:12 70° ENE 21:36:07 10° N
OAO 3 Rocket 4.0 21:28:31 10° SW 21:32:57 33° SSE 21:36:05 17° ESE
ATLAS 5 CENTAUR R/B 3.5 21:27:38 10° NW 21:33:20 40° WSW 21:39:18 10° S
Cosmos 1408 2.6 21:30:00 10° S 21:33:34 56° E 21:37:09 10° NNE
Cosmos 1782 Rocket 3.8 21:32:04 10° SSE 21:36:23 50° E 21:40:43 10° NNE
Sich 1 Rocket 4.0 21:33:18 10° SSW 21:37:51 68° W 21:42:26 10° N
Atlas Centaur 2 2.8 21:37:09 10° SW 21:39:37 17° SSW 21:40:37 16° S
Cosmos 1238 Rocket 2.6 21:40:50 10° N 21:44:12 63° E 21:46:41 21° SSE
Cosmos 1825 2.1 21:41:14 10° S 21:45:03 84° E 21:48:53 10° N
SPOT 5 3.2 21:43:47 18° SSE 21:47:40 63° ENE 21:52:58 10° N
Nadezhda 3 Rocket 4.0 21:42:03 10° N 21:48:27 88° E 21:54:38 11° S
Cosmos 1975 Rocket 3.1 21:48:33 10° N 21:52:51 61° E 21:55:11 26° SSE
COS B Rocket 3.3 21:52:19 10° N 21:56:18 73° W 21:58:59 17° S
Cosmos 1833 Rocket 3.9 21:51:49 10° N 21:56:37 28° ENE 21:59:10 20° E
MetOp-A 4.2 21:54:29 22° SSE 21:57:54 66° ENE 22:03:13 10° N
Cosmos 1850 Rocket 4.4 21:52:47 10° N 21:57:58 50° ENE 22:00:34 27° SE
Cosmos 2278 Rocket 2.5 21:53:27 10° SSW 21:59:06 70° WNW 22:04:47 10° NNE
Cosmos 1844 Rocket 4.5 21:54:19 10° SW 21:59:25 34° WNW 22:04:31 10° N
Cosmos 676 Rocket 4.5 21:54:46 10° NNW 21:59:53 57° WSW 22:04:03 15° S
Cosmos 1174 4.3 21:57:53 10° NW 22:00:45 35° WSW 22:01:56 24° SSW
DNEPR-1 R/B 3.9 21:56:14 10° NNW 22:01:30 61° NE 22:03:31 32° SE
UNK 4.4 21:55:34 10° NNE 22:01:40 62° ESE 22:06:49 13° S
Cosmos 1378 Rocket 3.9 21:59:04 10° NNW 22:03:19 61° W 22:06:34 17° S
Cosmos 1954 Rocket 4.2 21:58:36 10° NNW 22:03:47 70° WSW 22:07:20 21° S
GPS 2-05 Rocket1 3.0 22:09:46 10° W 22:13:24 55° S 22:13:40 54° SSE
Cosmos 2341 Rocket 4.3 22:07:52 10° SSW 22:14:07 66° W 22:20:22 10° N
USA 229 DEB 4.2 22:10:26 10° NNW 22:17:20 51° NE 22:20:58 28° ESE
USA 229 4.2 22:10:32 10° NNW 22:17:26 50° NE 22:21:04 28° ESE
Cosmos 1741 Rocket 3.9 22:13:49 10° NNW 22:19:04 76° ENE 22:21:06 38° SSE
USA 245 2.9 22:19:50 61° ESE 22:20:12 68° ENE 22:24:14 10° N
Cosmos 2082 Rocket 2.5 22:15:01 10° NNW 22:20:37 55° ENE 22:22:40 36° ESE
Meteor 1-14 Rocket 4.1 22:18:54 22° S 22:22:40 78° E 22:28:16 10° NNE
SL-8 Rocket 3.9 22:18:59 17° S 22:23:58 87° E 22:30:15 10° N
Elektron 3 4.2 22:26:35 10° NW 22:29:36 75° SW 22:30:15 58° SSE
H-2A R/B 3.6 22:26:50 15° SSW 22:29:46 30° W 22:33:31 10° NW
COSMOS 2487 4.2 22:27:12 10° NW 22:30:22 29° WSW 22:31:36 23° SW
Timation 2 Rocket 3.9 22:25:37 10° NNW 22:31:35 75° WSW 22:34:12 35° S
Cosmos 1110 Rocket 4.2 22:31:04 44° SE 22:31:40 47° ESE 22:36:40 10° NNE
Cosmos 2151 Rocket 3.5 22:31:06 50° SSE 22:32:12 76° E 22:36:45 10° N
Envisat 4.4 22:29:27 12° SSW 22:33:29 32° W 22:38:03 10° NNW
Cosmos 2297 4.0 22:29:53 10° SSW 22:35:33 70° WNW 22:41:17 10° NNE
CZ-4 R/B 3.6 22:36:08 10° NNE 22:40:50 81° ESE 22:41:53 53° S
NOAA 11 4.1 22:39:28 42° S 22:41:24 87° WSW 22:46:57 10° NNW
OAO 1 Rocket 4.4 22:39:16 10° WSW 22:44:28 59° S 22:44:50 57° SSE
Cosmos 614 Rocket 4.1 22:40:08 10° NNW 22:45:10 67° WSW 22:46:32 46° SSW
Cosmos 1300 Rocket 4.3 22:47:41 39° ENE 22:47:41 39° ENE 22:51:08 10° NNE
Okean 1 Rocket 4.0 22:52:59 37° ENE 22:52:59 37° ENE 22:56:16 10° NNE
CZ-4C R/B 3.5 22:53:00 63° NE 22:53:00 63° NE 22:56:43 10° N
BREEZE-M TANK 4.4 22:42:30 10° WNW 22:53:48 45° N 22:56:11 21° ENE
Cosmos 864 Rocket 4.5 22:51:04 33° SSW 22:54:01 81° W 23:00:13 10° N
Landsat 7 3.6 22:58:19 77° SSE 22:58:41 86° ENE 23:03:28 10° NNW
Gbstr 26 Del rocket 4.4 22:55:34 10° NW 23:00:02 32° NNE 23:01:03 29° NE
H-2A R/B 2.0 23:03:30 68° SE 23:04:12 81° ENE 23:09:32 10° N
Cosmos 2366 rocket 4.4 23:01:37 27° SSW 23:05:08 62° W 23:11:26 10° N
ISS 0.0 23:03:48 10° NW 23:05:25 13° NNW 23:07:03 10° NNE
SL-08 RB Rocket 4.2 23:05:44 49° SW 23:06:18 52° W 23:10:51 10° NNW
Cosmos 2369 Rocket 3.7 23:08:34 21° ENE 23:08:34 21° ENE 23:11:07 10° NE
Okean 1-7 Rocket 4.3 23:02:44 10° N 23:06:19 43° NE 23:06:19 43° NE
ARGOS 3.9 23:09:33 36° SW 23:11:03 45° W 23:16:11 10° NNW
Terra 1.7 23:14:34 83° NNE 23:14:34 83° NNE 23:19:11 10° NNW
USA 234 3.1 23:08:41 10° NE 23:15:12 68° SE 23:17:24 43° SSW
OAO 3 Rocket 4.5 23:11:19 10° WSW 23:13:56 30° WSW 23:13:56 30° WSW
Cosmos 1302 Rocket 4.1 23:27:10 67° NE 23:27:10 67° NE 23:31:50 10° NNE
CARTOSAT-1 4.3 23:30:00 51° WNW 23:30:00 51° WNW 23:33:33 10° NNW
Spot 4 4.0 23:29:47 74° NNW 23:29:47 74° NNW 23:34:12 10° NNW
Okean 1 4.4 23:27:04 10° NNW 23:30:04 43° NW 23:30:04 43° NW
Cosmos 1943 Rocket 4.3 23:41:12 14° ENE 23:41:12 14° ENE 23:42:15 10° NE
Cosmos 1833 Rocket 3.5 23:35:25 10° NW 23:40:36 39° WSW 23:40:52 39° WSW
Cosmos 1000 Rocket 4.3 23:35:45 10° N 23:42:02 89° E 23:42:21 82° SSE
Lacrosse 5 2.4 23:43:14 55° NNE 23:43:14 55° NNE 23:47:18 10° NE
Cosmos 2239 Rocket 4.3 23:45:30 83° S 23:45:46 88° E 23:52:07 10° N
